Tracking 32954 objects as of 19-Jan-2026
HD Live streaming from Space Station
objects crossing your sky now

COSMOS 2499 DEB

Track COSMOS 2499 DEB now!
10-day predictions


NORAD ID: 59373
Int'l Code: 2014-028BT
Perigee: 1,083.6 km
Apogee: 1,383.4 km
Inclination: 82.5 °
Period: 110.0 minutes
Semi major axis: 7604 km
RCS: Unknown
Launch date: May 23, 2014
Source: Commonwealth of Independent States (former USSR) (CIS)
Launch site: PLESETSK MISSILE AND SPACE COMPLEX (PKMTR)

Note: This is SATELLITE DEBRIS
Your satellite tracking list
Your tracking list is empty




NASA's NSSDC Master Catalog

Two Line Element Set (TLE):
1 59373U 14028BT  26017.59744208  .00001277  00000-0  33563-2 0  9996
2 59373  82.5302 333.4998 0197069 244.7645 113.2932 13.09171251127890
Source of the keplerian elements: AFSPC